Tracking 18980 objects as of 21-Feb-2018
HD Live streaming from Space Station
objects crossing your sky now

GOES 1 (SMS-C)

Track GOES 1 (SMS-C) now!
GOES 1 (SMS-C) is classified as:


NORAD ID: 8366
Int'l Code: 1975-100A
Perigee: 35,781.2 km
Apogee: 35,831.4 km
Inclination: 11.6 °
Period: 1,436.7 minutes
Semi major axis: 42177 km
RCS: 3.1655 m2 (large)
Launch date: October 16, 1975
Source: United States (US)
Launch site: AIR FORCE EASTERN TEST RANGE (AFETR)
aabbcc
Your satellite tracking list
Your tracking list is empty




NASA's NSSDC Master Catalog

Two Line Element Set (TLE):
1  8366U 75100A   18051.49309443 -.00000087 +00000-0 +00000-0 0  9993
2  8366 011.6299 315.5270 0005952 316.9445 309.5169 01.00227143154596
Source of the keplerian elements: AFSPC